Dewpoint
1 5 9 12 15 17 18 21 22 24 24 23 22 21 19 21 22 21 22 23 25 26 28 29 29 29 30 31 33 35 38 45 51 55 55 56 60 59 60 60 60 58 58
-0 2 6 11 14 16 18 21 21 23 24 23 22 21 21 21 21 22 23 23 25 28 28 28 28 28 29 30 32 34 37 44 48 54 54 50 56 60 60 59 59 58 58
-0 -0 1 3 11 15 17 19 21 23 23 22 22 22 22 22 21 20 22 24 25 26 28 27 28 28 29 29 31 34 36 38 45 49 53 50 50 57 59 58 58 57 57
3 4 6 6 7 10 18 21 21 21 23 23 21 21 20 19 18 20 23 24 24 25 26 27 28 28 29 29 30 32 34 36 38 45 55 55 53 52 52 56 57 57 56
5 6 7 10 11 15 17 20 21 22 24 23 22 20 17 18 20 21 22 23 24 24 25 26 26 27 28 29 29 30 31 35 37 41 45 54 54 53 51 52 55 56 55
4 7 9 11 11 13 16 18 21 22 22 20 15 15 15 16 18 19 21 23 24 25 25 25 26 27 28 28 29 30 31 33 36 37 40 44 50 51 52 53 54 54 54
8 9 10 11 13 14 16 17 17 18 15 13 14 15 16 17 17 19 21 22 23 23 24 24 25 26 27 28 29 29 30 32 34 36 37 42 45 53 54 54 54 53 53
10 16 13 13 15 15 15 14 11 11 12 12 13 15 17 18 19 21 21 21 21 22 23 23 24 25 25 26 26 28 29 32 33 35 36 37 41 46 52 55 54 52 52
22 23 23 21 19 17 14 11 9 9 11 12 14 16 16 18 20 20 21 21 21 21 21 22 22 23 25 25 26 26 27 28 31 35 38 37 38 44 51 56 55 51 48
22 27 26 25 22 18 12 8 8 10 11 13 14 15 17 19 20 20 20 20 21 21 21 21 22 22 24 25 25 25 26 27 28 32 34 37 40 43 45 56 55 52 50
28 30 29 27 24 18 10 8 9 10 11 13 15 16 17 19 20 20 20 20 21 20 20 21 21 22 22 22 23 24 25 26 27 29 31 33 34 38 44 55 55 53 52
31 30 29 28 26 20 14 10 8 10 12 13 14 15 17 19 19 19 19 20 20 20 20 20 20 20 20 21 21 22 23 23 24 26 28 31 34 37 40 43 55 53 52
29 28 30 30 27 23 13 10 9 10 12 14 15 15 17 18 18 18 19 20 20 20 20 20 20 20 20 20 21 21 22 23 23 25 26 27 29 33 38 42 53 53 52
29 30 31 31 27 22 14 11 10 12 14 15 16 16 17 18 18 18 18 19 20 20 20 20 20 20 20 20 20 20 21 21 22 23 25 27 31 30 36 41 47 52 52
28 29 30 32 26 17 14 13 14 15 16 16 16 17 18 18 18 18 18 19 19 20 21 21 20 20 20 20 20 20 20 21 21 22 24 25 27 36 36 39 42 52 52
29 29 30 28 21 17 15 16 17 17 17 17 17 17 18 18 18 19 19 19 19 20 22 22 21 21 20 21 21 21 20 20 21 22 23 24 25 28 34 40 43 45 52
29 29 29 23 19 17 17 16 17 17 18 18 18 18 18 18 18 18 18 19 20 20 21 22 22 21 21 22 22 23 22 21 20 21 22 23 24 28 32 34 38 41 45
29 28 23 17 15 16 17 17 17 17 17 17 17 18 18 18 18 19 20 20 20 21 22 22 22 23 22 22 22 22 23 22 22 22 22 23 24 28 32 35 36 40 48
28 25 18 15 18 18 18 18 17 16 16 16 16 17 18 18 18 19 19 19 20 22 21 22 23 24 23 23 23 22 23 24 24 24 24 23 24 27 31 36 37 40 52
24 19 17 18 19 18 18 18 17 15 15 15 16 17 18 18 18 18 19 20 20 21 24 25 24 24 25 24 24 22 24 25 24 25 25 24 25 30 32 37 37 39 50
19 18 19 18 17 18 17 16 15 15 15 16 17 17 17 17 17 17 20 21 22 23 24 25 25 27 25 24 24 24 24 26 23 24 24 25 25 27 33 36 39 40 50
18 17 17 16 17 17 16 15 14 15 16 16 16 17 17 16 17 19 21 21 22 24 24 26 24 23 27 25 25 25 26 28 24 23 23 24 24 27 29 37 38 40 45
18 18 18 17 16 16 15 14 14 15 16 16 16 16 17 17 18 21 21 22 23 24 25 24 22 26 26 24 25 26 25 27 26 24 23 24 26 29 32 34 39 40 43
17 18 17 16 15 14 15 15 15 16 16 16 16 16 17 18 19 18 22 22 23 24 25 24 23 23 24 24 24 23 26 28 27 31 24 30 28 33 34 35 37 39 42
17 17 18 15 13 14 14 14 15 16 16 16 16 17 17 17 18 22 20 22 23 23 26 25 23 23 23 24 23 22 21 28 29 30 31 26 30 33 35 35 37 40 45
18 17 15 14 13 13 14 15 16 16 16 16 16 17 17 19 20 18 19 20 23 25 30 31 27 25 22 21 21 24 23 21 26 28 26 27 29 34 34 34 36 39 46
Wind_Speed
7 6 3 3 6 8 10 11 12 14 11 12 12 13 11 11 12 13 14 14 13 10 10 11 12 11 10 10 12 11 14 13 5 2 6 10 17 24 24 23 23 23 19
8 9 11 11 9 11 12 14 16 15 13 10 7 8 12 13 14 14 15 17 15 12 9 10 9 12 10 10 11 10 9 7 9 4 2 8 10 20 26 24 24 25 21
7 7 7 7 10 13 14 15 15 14 13 11 7 10 13 13 13 13 12 11 11 8 6 8 9 12 11 9 11 10 7 9 10 9 6 8 15 24 21 27 25 26 22
12 12 10 11 11 11 9 13 13 13 10 8 10 13 16 18 16 15 14 14 12 13 11 10 10 11 12 10 10 9 8 6 12 14 9 8 2 5 6 22 26 25 25
9 6 6 8 8 7 8 9 9 10 8 9 12 13 15 15 17 14 16 15 14 13 13 12 12 11 12 11 9 11 11 9 10 11 7 7 11 10 10 23 24 24 24
3 7 8 8 10 11 9 10 12 14 12 12 13 16 18 17 18 17 16 14 13 12 12 11 12 12 11 12 10 10 12 12 10 11 14 11 7 15 10 20 27 26 24
6 11 13 13 11 10 11 10 11 14 12 14 16 16 16 17 18 19 15 15 14 12 12 12 12 13 11 12 12 11 11 12 12 11 13 14 17 9 9 23 25 25 19
9 11 14 13 10 10 11 10 12 14 15 17 19 17 16 14 16 16 17 15 14 14 12 12 12 12 11 10 10 10 10 12 13 14 14 15 17 16 20 15 26 19 17
14 16 15 15 11 9 11 10 12 16 17 18 17 17 17 17 17 17 16 15 14 14 16 15 15 13 14 11 12 12 13 12 13 14 13 15 20 18 15 26 28 28 20
23 19 17 14 9 10 11 9 12 16 16 17 17 17 17 16 15 15 17 17 15 14 15 16 15 12 12 14 14 15 14 15 14 14 16 16 15 17 15 21 30 30 31
24 20 18 14 11 7 9 8 13 17 15 16 17 17 18 16 16 18 18 17 16 14 15 16 16 16 17 18 17 17 17 17 17 16 17 19 19 18 23 15 23 27 31
25 21 20 17 12 9 11 14 14 17 16 16 16 18 18 17 18 19 19 18 17 17 17 17 18 19 19 19 20 20 19 20 20 20 19 19 16 23 19 18 22 29 31
26 26 21 18 12 13 12 12 17 17 16 16 17 19 20 19 20 20 19 18 19 19 18 19 21 21 22 21 21 22 21 22 22 20 19 20 20 23 21 20 29 26 25
25 22 20 19 13 11 12 14 18 18 17 17 19 20 21 20 20 20 20 20 19 20 21 21 21 22 22 22 23 25 23 23 23 23 22 21 20 24 26 27 24 33 29
24 21 21 16 11 11 12 16 18 19 18 20 21 22 22 22 21 22 22 22 21 21 21 23 24 23 24 23 23 24 25 23 23 24 24 24 25 22 24 22 22 35 32
25 26 21 13 11 13 15 16 19 20 19 22 23 23 23 23 23 22 22 22 22 22 22 24 25 26 24 29 34 32 26 26 25 25 25 25 28 28 33 30 32 19 36
26 29 18 12 12 15 14 18 20 20 21 22 24 24 23 24 24 23 23 24 23 22 24 25 25 27 27 32 34 35 29 26 26 26 25 25 24 26 24 29 36 36 37
31 27 9 14 15 14 15 17 19 21 22 23 24 25 24 24 24 23 24 24 23 24 24 25 27 28 26 33 35 37 30 27 27 28 27 28 26 26 24 27 27 27 34
24 15 11 16 15 15 16 17 20 22 23 24 24 25 24 24 24 25 25 25 24 24 26 27 28 29 29 34 36 35 28 28 30 27 28 28 28 32 30 25 26 29 36
10 14 15 16 14 18 15 17 20 22 24 24 24 25 25 25 26 26 26 25 25 27 26 28 30 33 32 35 37 37 27 28 27 29 29 37 33 29 33 29 29 32 36
14 12 12 16 17 16 14 19 20 23 25 24 25 26 26 26 26 27 25 26 26 26 29 29 28 30 31 31 37 39 30 27 26 26 26 26 37 39 31 35 25 33 23
16 15 15 17 17 16 15 20 22 24 25 26 26 26 27 25 24 27 27 26 26 28 30 24 21 25 29 36 34 38 41 32 28 27 25 24 34 37 36 29 34 35 28
16 13 14 18 19 17 16 20 24 23 25 26 27 27 28 26 25 26 26 25 23 24 24 19 20 16 20 23 34 36 39 40 33 25 26 31 32 34 33 37 30 27 23
18 13 15 19 22 18 18 19 22 22 24 27 28 27 26 27 25 24 21 22 22 23 21 20 20 20 20 22 22 25 28 35 34 31 30 27 29 28 28 27 31 23 23
18 17 16 18 22 20 20 21 21 21 24 27 27 27 24 25 27 21 22 21 22 23 21 22 22 20 21 20 23 24 22 21 23 25 20 24 21 23 24 24 27 24 27
19 18 20 18 21 20 21 21 21 21 24 26 26 26 27 24 23 24 25 25 29 32 31 33 24 20 26 25 29 32 32 32 29 25 23 22 23 22 25 25 25 25 27
Wind_Direction
167 153 183 246 262 263 266 241 246 245 237 251 261 280 282 291 290 288 291 294 293 292 291 295 295 296 299 307 307 303 301 305 260 275 272 276 269 162 157 155 156 159 161
202 208 197 197 221 251 256 249 243 246 239 240 242 274 283 280 277 276 271 268 259 260 246 268 296 304 298 296 295 307 317 296 286 224 121 302 252 173 157 157 159 161 160
239 273 269 234 223 230 240 247 250 250 244 250 271 289 291 296 294 295 290 295 291 278 253 258 267 281 286 283 290 295 304 299 312 307 196 170 240 152 159 160 161 161 162
248 250 256 258 255 262 250 253 248 255 258 247 268 274 280 290 291 290 288 283 279 275 267 257 258 262 274 272 276 284 277 278 280 316 265 241 144 27 155 160 161 163 162
233 271 301 307 310 310 292 283 284 283 273 267 270 275 284 281 287 285 284 279 273 267 266 253 251 249 261 271 261 269 271 258 268 283 320 231 220 191 241 166 160 163 166
274 286 284 275 269 267 264 266 267 260 261 268 279 275 276 277 281 283 279 278 278 268 258 255 251 242 243 263 263 263 262 269 264 272 278 266 264 200 220 193 158 160 164
300 283 277 276 271 275 277 273 272 273 281 284 280 276 271 272 275 279 279 276 275 270 258 254 246 254 239 244 255 254 259 265 265 264 270 278 276 267 191 197 164 156 165
296 299 283 265 275 279 285 284 288 291 295 290 281 277 276 272 271 272 273 271 269 270 264 256 260 250 255 252 257 260 262 254 257 261 261 271 281 300 216 210 162 158 157
328 313 298 295 292 289 290 291 291 287 284 285 287 287 281 274 268 269 267 270 264 260 259 256 251 253 253 241 249 253 251 254 261 261 257 252 261 264 289 189 180 161 168
307 300 293 292 289 287 281 281 279 286 291 289 285 286 283 279 276 275 272 267 265 263 264 265 263 257 250 248 234 244 246 247 246 252 257 258 266 271 288 203 195 187 167
300 297 297 291 281 291 288 289 298 288 291 291 287 287 287 284 281 274 268 266 264 260 259 262 260 253 249 251 250 243 245 239 244 242 246 253 255 268 254 245 194 184 169
302 309 312 302 301 300 303 293 296 295 287 286 288 288 286 284 280 274 267 260 258 255 255 254 256 256 252 246 250 247 242 244 243 241 241 249 249 254 272 289 209 190 180
308 308 304 291 277 291 288 293 291 288 289 291 289 289 287 284 281 278 273 264 258 252 247 245 246 248 250 248 244 250 245 243 243 246 238 242 240 246 256 251 220 192 182
299 298 293 279 268 275 284 288 290 289 291 292 290 287 286 284 281 280 277 268 261 257 255 247 243 240 240 243 244 247 247 244 244 244 243 244 235 240 237 243 264 180 181
314 310 300 279 258 280 289 290 285 289 293 292 289 286 287 287 285 280 276 271 263 257 249 249 249 247 242 242 238 239 244 246 246 243 246 242 242 246 238 251 281 179 180
311 310 297 272 282 286 290 289 288 290 296 292 289 289 288 286 281 279 275 270 264 259 252 244 244 243 240 236 240 236 235 241 243 243 243 246 249 244 244 253 252 263 181
312 314 294 282 283 286 287 287 289 293 289 287 287 285 284 283 282 280 276 272 267 264 257 250 244 244 239 239 243 241 238 235 235 239 240 244 243 242 245 250 253 271 271
316 315 283 294 290 286 287 288 290 289 287 287 286 284 285 282 283 280 277 275 270 264 259 256 249 245 240 238 241 242 240 239 238 235 235 239 242 244 231 231 241 249 247
306 294 297 295 292 293 287 286 289 289 289 287 287 285 285 286 285 279 276 274 270 264 261 255 253 247 243 239 239 237 235 235 235 235 233 238 235 239 239 231 243 252 208
287 296 293 292 292 287 283 289 287 291 287 289 290 289 287 283 281 277 275 272 268 262 255 252 250 248 243 235 235 234 227 229 229 229 233 234 235 235 230 227 234 242 208
308 300 284 283 283 285 286 291 291 288 290 292 291 290 288 284 281 280 275 273 266 259 258 252 250 242 230 228 231 231 224 222 226 227 227 227 229 236 234 226 231 235 202
308 310 303 299 297 296 293 289 290 292 296 296 295 293 290 288 287 284 282 275 267 261 260 237 249 252 235 230 227 229 228 220 222 226 226 227 227 233 225 235 228 243 257
301 302 298 298 295 292 287 287 291 298 298 299 298 295 292 290 290 286 284 275 267 256 244 234 249 238 214 219 227 227 228 225 222 224 230 228 229 223 223 224 233 237 251
306 301 297 296 297 298 296 287 293 298 301 300 300 298 296 298 298 290 278 275 268 269 229 228 233 236 227 216 214 227 228 226 228 221 227 237 226 211 214 214 226 232 255
303 297 291 294 296 299 298 299 298 300 302 303 301 300 301 300 297 289 287 277 268 263 248 229 227 223 220 212 210 212 218 217 223 215 210 228 243 207 213 206 217 225 229
295 299 301 298 299 301 300 300 302 303 304 302 305 307 306 301 303 298 293 283 279 279 262 241 219 222 226 223 223 222 219 219 216 216 214 222 233 206 208 193 209 232 191